RH
32 27 25 25 22 21 22 28 30 16 32 39 43 44 45 47 40 40 44 47 58 63 63 59 53 55 52 31 13 9 7 6 4 4 5 5 6 5 4 3 3 2 2 2
28 21 17 23 26 28 29 32 32 35 39 40 42 44 46 47 42 45 50 56 57 50 35 32 36 34 34 22 16 18 14 9 7 8 8 8 8 10 5 4 4 3 3 3
38 27 31 28 32 27 33 34 37 41 38 36 43 44 45 42 41 46 50 52 41 32 26 17 17 16 25 24 38 42 33 24 9 8 8 9 10 12 13 4 4 5 4 3
25 30 37 30 36 46 24 32 35 48 49 41 43 59 45 43 40 45 32 19 23 19 15 13 14 15 30 47 48 43 43 42 30 19 11 13 13 16 19 14 4 5 5 4
34 36 38 33 36 44 36 37 45 49 38 44 39 49 43 41 41 27 11 13 16 12 10 11 13 23 36 54 55 57 53 45 35 31 18 16 17 21 22 20 12 5 5 6
29 40 32 14 35 32 34 48 52 50 50 62 61 49 55 66 50 29 10 13 15 11 10 12 18 27 54 70 74 61 43 39 41 35 22 19 20 21 21 22 18 9 5 6
32 22 38 50 19 44 57 61 61 75 82 79 47 43 43 59 46 22 10 10 10 12 11 14 16 36 61 84 78 55 36 35 31 19 18 20 20 20 21 20 18 13 6 5
30 36 32 55 53 53 56 54 63 81 86 63 40 37 48 50 38 20 15 10 11 11 11 11 19 56 81 85 75 52 37 31 20 20 24 25 21 16 11 11 11 9 7 6
41 49 35 36 47 41 45 53 62 73 52 56 49 54 49 49 43 24 14 10 11 11 10 14 24 79 79 69 54 39 29 24 24 31 28 20 16 10 8 8 6 6 6 6
39 30 24 22 38 37 42 48 41 62 85 88 58 56 53 54 58 26 12 10 12 15 17 32 50 77 60 43 33 25 22 27 32 30 23 17 12 9 8 8 9 6 6 6
22 10 30 26 10 18 26 30 44 68 53 93 94 56 67 63 38 18 10 11 22 23 43 61 76 68 31 20 18 18 20 24 29 25 24 17 11 10 12 12 12 10 7 5
21 13 29 50 52 25 12 18 12 16 71 36 90 14 25 40 20 12 11 14 27 61 75 74 68 33 13 12 13 15 15 19 27 26 25 18 11 12 14 21 22 21 14 7
9 32 58 61 46 37 31 20 13 12 25 54 65 31 30 22 19 15 14 27 52 75 74 72 43 11 9 9 11 10 11 17 26 29 25 18 11 13 20 30 31 31 24 15
18 35 44 39 57 62 36 15 24 24 20 24 18 11 21 21 12 13 15 35 68 73 71 50 16 9 7 8 9 8 10 16 24 29 26 19 11 16 25 34 38 41 40 30
28 18 27 63 45 37 38 30 26 26 23 17 8 7 8 15 12 12 19 45 68 68 42 21 11 9 7 7 8 7 10 14 22 29 28 21 12 16 26 34 40 44 48 51
30 31 17 28 51 37 36 38 36 39 42 32 28 13 25 16 15 23 41 66 67 50 52 16 10 8 6 7 6 7 9 16 22 28 29 22 15 12 19 34 40 45 50 55
19 48 33 28 43 44 38 20 25 32 18 18 26 25 33 19 29 44 57 60 50 50 66 17 10 8 6 6 6 7 10 16 23 27 29 24 19 12 12 27 39 45 49 55
6 29 39 51 50 63 20 26 24 25 16 19 27 30 41 42 43 51 50 50 51 64 62 13 10 8 6 6 7 6 9 14 21 26 27 28 22 17 11 21 35 44 51 58
25 48 53 34 49 25 17 28 28 14 8 10 22 40 45 46 50 47 46 48 55 68 24 13 11 8 6 7 7 6 8 12 17 22 24 30 26 22 15 13 28 43 51 58
53 48 45 48 48 58 37 36 29 18 10 22 14 30 41 44 47 43 37 47 48 39 15 13 11 9 7 8 8 6 8 10 14 18 21 29 29 24 20 14 18 39 52 59
59 58 59 58 56 19 18 27 21 16 24 17 13 22 28 34 29 30 32 33 25 17 15 14 13 11 9 10 8 7 8 9 12 16 18 23 29 28 21 18 12 26 45 58
43 52 58 64 59 22 9 15 25 13 11 11 13 15 18 20 21 21 20 22 20 19 17 16 15 13 12 11 10 8 7 9 12 13 16 18 24 28 28 19 17 14 31 50
33 19 17 12 7 10 14 16 10 9 9 10 12 14 16 24 24 21 17 18 20 19 19 18 17 16 14 13 11 10 8 9 10 12 14 16 21 25 30 26 19 15 17 33
31 28 24 21 10 9 9 9 10 11 10 10 12 16 17 18 19 19 22 22 23 22 22 21 20 18 16 14 12 11 10 9 9 10 12 15 19 24 31 31 24 18 15 17
18 21 16 10 10 10 9 9 10 10 10 10 12 14 14 17 19 21 23 21 25 25 23 22 21 20 18 16 14 12 11 10 9 10 11 14 18 26 31 34 30 21 16 14
20 12 13 6 9 10 10 10 10 10 10 10 12 15 16 20 24 24 24 22 27 25 24 23 24 23 20 17 15 14 13 12 10 10 10 14 18 25 32 38 36 20 15 14
Wind_Speed
9 14 12 7 9 8 5 13 7 8 12 6 4 4 7 9 13 17 18 21 19 21 24 25 27 32 34 39 41 41 40 35 31 29 30 28 25 24 23 23 20 22 21 21
6 5 6 14 9 13 8 6 7 10 13 5 3 3 4 9 16 16 16 19 22 24 27 27 28 30 34 38 39 39 38 35 32 31 30 30 31 25 25 24 22 22 22 22
6 10 11 13 8 10 13 11 7 6 10 7 3 3 0 8 12 7 14 21 26 25 26 29 30 32 33 36 38 40 39 36 32 31 31 30 29 26 22 19 19 19 21 22
5 11 4 15 13 9 7 13 8 8 4 2 1 5 7 1 4 10 21 23 23 25 26 28 30 32 34 35 38 41 43 42 37 34 33 31 31 31 30 26 21 20 21 22
9 8 8 5 14 6 8 14 9 8 4 4 3 2 5 6 11 17 22 20 22 24 27 28 30 30 29 33 39 43 45 43 40 37 34 33 32 31 30 28 26 21 20 20
11 12 8 7 13 6 13 12 5 3 2 2 3 5 10 15 15 17 21 21 23 25 26 26 25 26 31 34 39 43 45 44 42 38 35 34 33 31 31 28 27 24 21 20
9 8 12 11 12 15 13 7 2 3 2 6 4 8 10 13 14 16 21 23 23 24 24 22 25 31 33 35 39 44 45 45 42 39 37 36 34 33 31 29 27 25 23 21
8 8 9 12 13 8 8 8 4 5 1 2 7 6 6 10 14 16 21 21 21 22 22 22 30 32 32 34 39 44 46 45 42 40 39 37 34 32 32 29 27 26 24 23
11 7 12 16 16 15 11 4 8 3 2 2 5 6 11 18 11 16 22 20 21 20 22 28 30 30 32 35 40 43 44 43 41 39 38 36 33 32 29 27 25 24 24 23
10 7 12 10 16 9 10 8 6 4 2 3 5 11 12 12 12 18 21 19 18 17 25 29 30 30 35 37 40 40 41 41 40 38 37 34 34 32 32 26 22 22 22 22
10 7 13 8 9 9 10 9 6 6 4 4 1 5 7 9 12 18 19 19 17 21 29 29 27 32 36 37 38 39 40 40 38 37 36 35 34 32 31 28 25 25 25 24
17 8 11 6 9 7 11 10 10 5 5 6 2 6 2 7 13 17 19 20 17 22 25 26 29 33 35 36 36 38 39 39 37 36 36 35 32 30 29 28 28 28 27 25
19 11 12 4 8 12 12 12 13 12 8 10 5 4 7 13 16 17 19 15 15 15 18 27 30 32 33 35 36 38 39 38 36 35 35 34 33 32 31 30 29 29 29 26
20 17 8 10 3 4 9 15 13 15 9 7 17 17 13 14 18 17 18 12 14 10 23 29 30 32 32 34 36 38 38 36 35 35 34 33 32 31 30 30 29 30 29 27
18 12 14 12 4 6 6 10 17 20 18 14 16 18 15 18 16 16 13 11 9 18 24 29 30 30 30 33 35 38 38 36 35 36 33 32 32 30 30 30 29 28 28 27
18 7 11 14 12 10 12 15 18 20 21 23 22 19 13 14 16 11 12 8 16 21 26 30 29 28 29 32 35 37 38 36 36 35 32 31 31 31 31 30 30 29 28 27
21 13 11 3 4 9 16 16 21 25 23 20 23 15 17 15 12 11 9 16 22 21 27 31 28 27 28 31 34 36 36 35 34 35 33 30 31 31 31 30 30 30 29 27
20 15 9 7 7 1 3 5 10 15 16 23 21 17 15 14 7 10 18 22 21 23 29 28 26 25 26 29 31 34 34 34 34 34 34 31 31 31 30 30 29 29 29 28
15 18 8 6 13 11 14 14 9 10 8 10 15 17 16 13 8 17 22 21 22 24 27 23 25 25 26 28 30 33 34 34 34 33 35 32 31 30 31 29 29 29 29 29
15 18 17 12 5 7 5 12 11 10 10 3 5 13 14 15 18 21 21 21 23 26 22 21 24 24 24 27 29 32 33 34 34 34 34 32 32 31 30 30 28 28 28 29
22 21 21 16 10 8 17 17 12 5 3 5 5 9 14 18 18 18 21 22 20 19 20 21 23 23 24 26 28 30 31 33 34 34 35 33 31 31 30 29 28 26 25 26
29 22 22 18 11 12 17 15 13 8 6 8 6 8 11 13 14 16 19 19 16 18 19 20 22 24 24 25 27 29 30 32 33 34 35 34 32 31 30 27 27 25 23 23
24 27 17 14 7 8 6 8 8 9 9 11 8 9 9 10 13 16 15 13 14 17 18 20 21 23 24 24 26 28 29 31 32 34 34 35 33 32 29 28 25 25 23 21
25 14 21 17 16 18 15 13 12 13 12 13 12 11 12 11 13 15 16 15 14 17 18 19 20 22 23 24 25 27 29 30 32 33 34 35 34 32 29 27 26 24 24 23
23 20 22 24 17 13 14 12 12 14 13 14 14 14 14 14 15 16 16 15 14 17 18 19 20 21 22 23 24 26 28 29 31 33 34 34 34 32 29 27 26 25 25 25
25 22 24 19 10 13 13 13 12 11 13 14 15 15 15 16 16 16 17 15 16 18 18 20 20 21 22 23 24 25 27 29 30 32 34 35 34 32 29 25 21 23 23 23
Wind_Direction
140 162 161 170 119 116 102 162 131 57 139 80 94 79 33 9 12 5 359 355 352 342 336 334 336 334 335 336 337 340 342 343 339 333 330 331 335 340 333 331 337 320 308 293
146 158 130 119 133 126 125 133 97 79 129 129 177 325 347 5 17 7 355 344 337 331 333 337 338 336 334 333 335 339 340 340 341 338 335 333 331 339 333 333 334 329 321 304
215 124 131 122 107 151 123 116 104 140 114 121 185 195 351 27 15 5 331 323 325 333 338 340 339 336 335 336 339 343 345 345 339 338 333 330 327 330 329 325 330 332 327 316
142 125 101 168 162 122 152 140 158 122 151 168 102 155 174 341 207 285 312 323 330 337 338 340 338 339 340 343 346 350 351 347 342 340 334 332 329 331 331 333 333 335 330 322
121 129 187 182 160 158 151 133 134 109 125 123 316 163 195 221 236 311 331 331 335 339 340 341 342 343 354 352 351 350 349 348 345 342 337 331 331 336 328 328 329 329 327 326
169 167 154 93 172 161 131 125 118 219 219 258 244 214 226 256 277 319 332 336 335 340 342 345 348 2 3 353 347 346 347 347 345 341 338 332 335 331 327 326 325 326 327 323
129 138 136 104 111 126 127 158 99 359 343 224 191 220 262 260 299 322 338 337 339 339 342 353 7 7 0 348 341 342 344 345 344 342 338 338 337 332 329 328 325 325 324 322
155 162 159 174 158 143 159 208 175 188 229 354 196 229 250 259 299 331 336 337 338 340 354 357 13 1 354 340 336 339 341 342 342 340 338 339 337 334 332 329 328 325 324 322
166 166 191 191 174 166 171 190 192 221 250 301 227 227 255 275 296 324 333 337 338 349 358 8 9 351 341 336 337 339 339 340 340 339 339 343 338 337 337 333 328 327 324 322
195 153 174 168 183 199 187 178 158 191 100 285 263 262 250 261 302 321 329 332 341 352 7 4 1 340 336 338 339 340 341 341 342 341 344 344 343 340 340 343 338 333 329 325
211 186 161 185 203 198 198 196 196 184 185 182 254 253 248 269 302 317 326 337 341 6 4 355 346 331 337 341 343 344 344 344 345 346 348 347 347 344 342 349 351 346 339 332
201 174 146 140 235 217 215 218 209 204 191 208 218 282 239 287 313 321 334 336 342 13 355 338 325 333 341 344 346 347 347 348 348 351 350 351 349 345 350 357 355 352 346 339
189 158 134 180 240 222 228 226 221 228 234 228 183 263 299 316 320 327 330 337 6 9 331 317 324 338 343 346 349 351 351 353 351 355 352 352 351 351 355 356 356 355 353 347
187 180 170 150 157 204 220 240 228 225 224 230 248 286 308 312 316 318 321 339 15 346 306 316 332 339 343 347 351 353 354 356 355 359 355 354 355 354 354 355 355 358 356 355
201 202 195 181 145 276 245 252 248 245 248 251 280 293 310 306 306 312 313 355 343 294 315 331 335 339 342 348 352 354 356 358 359 0 358 357 357 354 354 354 356 357 0 1
202 184 206 219 221 241 258 265 272 272 269 266 277 296 304 302 309 314 348 350 286 303 333 333 335 337 344 348 353 355 357 0 1 359 0 0 359 356 356 355 356 357 360 3
194 185 183 183 203 230 258 263 253 257 274 276 272 314 302 307 310 339 320 281 296 317 328 331 332 339 346 348 353 355 359 0 1 360 2 2 0 358 357 356 356 356 358 2
196 186 180 158 200 241 240 278 287 277 269 266 276 294 303 315 331 301 288 305 314 317 321 328 331 340 346 349 352 356 359 1 2 0 1 3 1 359 359 358 356 358 357 360
197 177 193 202 213 273 275 275 284 282 279 263 263 273 285 298 250 273 291 300 306 310 320 328 333 342 345 349 350 356 359 2 2 1 0 3 358 0 359 358 358 357 359 359
203 198 213 200 214 217 255 267 274 292 287 257 257 241 253 252 248 274 296 304 308 314 321 332 336 340 344 346 350 355 358 1 1 1 0 1 357 357 358 358 358 359 358 360
195 200 219 215 228 257 229 256 276 253 241 290 310 228 243 245 266 282 294 302 312 315 330 336 335 336 345 345 351 354 357 359 1 360 359 359 357 355 355 356 356 357 359 360
193 193 206 216 228 256 231 239 235 263 292 293 289 270 259 267 278 293 304 310 323 323 332 334 335 337 342 344 350 353 356 359 359 359 359 357 358 355 351 353 354 355 357 359
209 214 217 210 232 220 226 218 252 285 293 297 291 289 285 277 289 291 303 317 323 326 334 336 335 335 340 344 349 351 354 357 358 359 358 357 358 355 351 350 353 353 356 358
221 217 227 234 239 242 254 260 261 272 286 293 297 298 300 299 294 303 312 325 328 329 333 332 334 333 339 343 348 350 353 355 356 358 357 358 358 356 353 351 349 352 353 357
241 225 232 243 236 240 242 254 265 270 271 280 289 292 301 303 303 306 311 327 332 327 330 330 333 334 339 341 346 348 350 353 355 357 357 358 358 358 357 352 350 351 353 354
231 235 232 247 257 251 253 254 252 261 273 280 278 285 295 298 298 302 310 328 324 324 328 331 333 334 338 340 344 346 348 351 354 356 357 358 357 359 359 359 357 348 350 351